Location: Braunsdorf
(50.7357°N, 11.9136°E)
Time: 15:46:17
(UTC+00:00)

STARLINK-1193 - Pass Details

Date: 17 February 2020
Orbit: 374 x 385 km, 53.0° (Epoch: 08 April)

Event Time Altitude Azimuth Distance (km) Brightness Sun altitude
Exits shadow 03:32:48 17° 70° (ENE) 1,035 5.8 -27.2°
Drops below altitude 10° 03:33:38 10° 71° (ENE) 1,377 6.6 -27.1°
Enters shadow 04:28:32 -71° 263° (W) 12,410 10.5 -18.5°
